Regional Weather Roundup
Issued by NWS

Home | Current Version | Previous Version | Graphics & Text | Print | Product List | Glossary On
Versions: 1 2 3 4 5 6 7 8 9 10 11 12 13 14 15 16 17 18 19 20 21 22 23 24 25 26 27 28 29 30 31 32 33 34 35 36 37 38 39 40 41 42 43 44 45 46 47 48 49 50
565
ASUS43 KTOP 310559
RWRKS

WEATHER ROUNDUP FOR KANSAS
NATIONAL WEATHER SERVICE GOODLAND KS
100 AM CDT SUN JUL 31 2016

NOTE:  "FAIR" INDICATES FEW OR NO CLOUDS BELOW 12,000 FEET WITH NO
SIGNIFICANT WEATHER AND/OR OBSTRUCTIONS TO VISIBILITY.

KSZ001>006-013>018-027>032-041>047-310700-
NORTHWEST KANSAS

CITY           SKY/WX    TMP DP  RH WIND       PRES   REMARKS
GOODLAND       CLEAR     73  65  75 SE13      29.90F
6HR MIN TEMP:  73; 6HR MAX TEMP:  89;

HAYS           PTCLDY    77  64  65 SE15      29.88F
HILL CITY      CLOUDY    76  69  79 SE10      29.88F
6HR MIN TEMP:  76; 6HR MAX TEMP:  88;

RUSSELL        PTCLDY    76  69  79 SE18      29.87F
6HR MIN TEMP:  76; 6HR MAX TEMP:  89;

$$

KSZ061>065-074>080-084>089-310700-
SOUTHWEST KANSAS

CITY           SKY/WX    TMP DP  RH WIND       PRES   REMARKS
DODGE CITY     CLEAR     75  67  76 SE14      29.92S
6HR MIN TEMP:  75; 6HR MAX TEMP:  90;

ELKHART          N/A     74  54  49 SE6         N/A
GARDEN CITY    PTCLDY    75  65  70 SE14      29.90F
6HR MIN TEMP:  75; 6HR MAX TEMP:  91;

GREAT BEND     PTCLDY    75  66  73 SE20      29.89F
LIBERAL        CLOUDY    79  61  53 S16       29.94F
$$

KSZ066>073-081>083-090>101-310700-
SOUTHEAST KANSAS

CITY           SKY/WX    TMP DP  RH WIND       PRES   REMARKS
CHANUTE        CLEAR     74  70  87 SE6       29.97S
6HR MIN TEMP:  74; 6HR MAX TEMP:  86;

COFFEYVILLE    CLEAR     73  71  93 E5        29.96S
6HR MIN TEMP:  73; 6HR MAX TEMP:  87;

HUTCHINSON     CLOUDY    76  71  85 SE13      29.93F
6HR MIN TEMP:  76; 6HR MAX TEMP:  87;

NEWTON         PTCLDY    73  70  90 SE10      29.95F
PARSONS        MOCLDY    75  71  87 CALM      29.98S
6HR MIN TEMP:  74; 6HR MAX TEMP:  86;

WICHITA INTL   CLEAR     77  71  82 SE10      29.93F
6HR MIN TEMP:  77; 6HR MAX TEMP:  87;

WICHITA JABRA  CLEAR     74  70  87 SE9       29.94F
6HR MIN TEMP:  74; 6HR MAX TEMP:  86;

WINFIELD       CLEAR     76  69  79 E7        29.95F
6HR MIN TEMP:  76; 6HR MAX TEMP:  86;

$$

KSZ007>012-019>026-033>040-048>060-102>105-310700-
NORTHEAST KANSAS

CITY           SKY/WX    TMP DP  RH WIND       PRES   REMARKS
CONCORDIA      CLEAR     71  69  93 E8        29.92F
6HR MIN TEMP:  71; 6HR MAX TEMP:  82;

EMPORIA        CLEAR     73  70  90 SE7       29.96F
6HR MIN TEMP:  73; 6HR MAX TEMP:  85;

LAWRENCE       CLEAR     70  68  93 E5        29.98S
6HR MIN TEMP:  70; 6HR MAX TEMP:  82;

MANHATTAN      CLEAR     74  70  87 NE3       29.94F
6HR MIN TEMP:  73; 6HR MAX TEMP:  83;

OLATHE IND     CLEAR     73  68  84 SE6       30.00R
6HR MIN TEMP:  73; 6HR MAX TEMP:  84;

OLATHE EXE     CLEAR     72  67  84 SE6       30.00R
6HR MIN TEMP:  72; 6HR MAX TEMP:  84;

SALINA         CLOUDY    79  69  71 SE13      29.91F
6HR MIN TEMP:  79; 6HR MAX TEMP:  89;

TOPEKA BILLARD CLEAR     73  69  87 E5        29.97S
6HR MIN TEMP:  73; 6HR MAX TEMP:  83;

TOPEKA FORBES  CLEAR     74  70  87 SE6       29.97S
6HR MIN TEMP:  74; 6HR MAX TEMP:  85;

$$




USA.gov is the U.S. government's official web portal to all federal, state and local government web resources and services.